カタログに戻る

STARLINK-35710

運用中通信VLEO
NORAD 66212·PAYLOAD·🇺🇸 United States

打ち上げ Oct 28, 2025 から Vandenberg Space Force Base

Loading…

次のパス (今後24時間)

TLE

最新Source: CelesTrak SupGP

元期: Sep 15, 2026, 04:10 UTC

1 66212C 25244G   26258.17409722 -.00020444  00000+0 -60417-3 0  2583
2 66212  53.1584  68.7971 0001166  92.5410 292.7377 15.34393443    15

AllMySatでSTARLINK-35710をリアルタイム追跡

Download on the App Store